Time,TemperatureF,DewpointF,PressureIn,WindDirection,WindDirectionDegrees,WindSpeedMPH,WindSpeedGustMPH,Humidity,HourlyPrecipIn,Conditions,Clouds,dailyrainin,SoftwareType,DateUTC
2013-05-20 00:01:00,67.5,66.9,30.09,South,178,0.0,0.0,98,0.00,,---,0.00,VWS V14.01,2013-05-20 04:01:00,
2013-05-20 00:06:00,67.5,66.9,30.09,South,178,0.0,0.0,98,0.00,,---,0.00,VWS V14.01,2013-05-20 04:06:00,
2013-05-20 00:11:00,67.6,67.1,30.09,South,178,0.0,0.0,98,0.00,,---,0.00,VWS V14.01,2013-05-20 04:11:00,
2013-05-20 00:16:00,67.6,67.1,30.09,South,178,0.0,0.0,98,0.00,,---,0.00,VWS V14.01,2013-05-20 04:16:00,
2013-05-20 00:21:00,67.6,67.1,30.09,South,178,0.0,0.0,98,0.00,,---,0.00,VWS V14.01,2013-05-20 04:21:00,
2013-05-20 00:26:00,67.6,67.1,30.09,NNW,345,0.0,0.0,98,0.00,,---,0.00,VWS V14.01,2013-05-20 04:26:00,
2013-05-20 00:31:00,67.6,67.1,30.09,South,174,0.0,0.0,98,0.00,,---,0.00,VWS V14.01,2013-05-20 04:31:00,
2013-05-20 00:36:00,67.6,67.1,30.09,South,174,0.0,0.0,98,0.00,,---,0.00,VWS V14.01,2013-05-20 04:36:00,
2013-05-20 00:41:00,67.6,67.1,30.09,SSE,150,0.0,0.0,98,0.00,,---,0.00,VWS V14.01,2013-05-20 04:41:00,
2013-05-20 00:46:00,67.6,67.1,30.09,SSE,150,0.0,0.0,98,0.00,,---,0.00,VWS V14.01,2013-05-20 04:46:00,
2013-05-20 00:51:00,67.5,66.9,30.09,South,189,0.0,0.0,98,0.00,,---,0.00,VWS V14.01,2013-05-20 04:51:00,
2013-05-20 00:56:00,67.5,66.9,30.09,South,189,0.0,0.0,98,0.00,,---,0.00,VWS V14.01,2013-05-20 04:56:00,
2013-05-20 01:01:00,67.3,66.7,30.09,South,189,0.0,0.0,98,0.00,,---,0.00,VWS V14.01,2013-05-20 05:01:00,
2013-05-20 01:06:00,67.3,66.7,30.09,South,189,0.0,0.0,98,0.00,,---,0.00,VWS V14.01,2013-05-20 05:06:00,
2013-05-20 01:11:00,67.1,66.5,30.09,South,189,0.0,0.0,98,0.00,,---,0.00,VWS V14.01,2013-05-20 05:11:00,
2013-05-20 01:16:00,67.1,66.5,30.09,South,189,0.0,0.0,98,0.00,,---,0.00,VWS V14.01,2013-05-20 05:16:00,
2013-05-20 01:21:00,66.9,66.3,30.09,South,189,0.0,0.0,98,0.00,,---,0.00,VWS V14.01,2013-05-20 05:21:00,
2013-05-20 01:26:00,66.9,66.3,30.09,South,189,0.0,0.0,98,0.00,,---,0.00,VWS V14.01,2013-05-20 05:26:00,
2013-05-20 01:31:00,66.9,66.3,30.09,South,189,0.0,0.0,98,0.00,,---,0.00,VWS V14.01,2013-05-20 05:31:00,
2013-05-20 01:36:00,66.7,66.2,30.09,South,189,0.0,0.0,98,0.00,,---,0.00,VWS V14.01,2013-05-20 05:36:00,
2013-05-20 01:41:00,66.7,66.2,30.09,South,189,0.0,0.0,98,0.00,,---,0.00,VWS V14.01,2013-05-20 05:41:00,
2013-05-20 01:46:00,66.7,66.2,30.09,South,189,0.0,0.0,98,0.00,,---,0.00,VWS V14.01,2013-05-20 05:46:00,
2013-05-20 01:51:00,66.7,66.2,30.09,South,189,0.0,0.0,98,0.00,,---,0.00,VWS V14.01,2013-05-20 05:51:00,
2013-05-20 01:56:00,66.7,66.2,30.09,South,189,0.0,0.0,98,0.00,,---,0.00,VWS V14.01,2013-05-20 05:56:00,
2013-05-20 02:01:00,66.6,66.0,30.09,South,189,0.0,0.0,98,0.00,,---,0.00,VWS V14.01,2013-05-20 06:01:00,
2013-05-20 02:06:00,66.6,66.0,30.09,South,189,0.0,0.0,98,0.00,,---,0.00,VWS V14.01,2013-05-20 06:06:00,
2013-05-20 02:11:00,66.6,66.0,30.09,South,189,0.0,0.0,98,0.00,,---,0.00,VWS V14.01,2013-05-20 06:11:00,
2013-05-20 02:16:00,66.6,66.0,30.09,South,189,0.0,0.0,98,0.00,,---,0.00,VWS V14.01,2013-05-20 06:16:00,
2013-05-20 02:21:00,66.6,66.0,30.09,South,189,0.0,0.0,98,0.00,,---,0.00,VWS V14.01,2013-05-20 06:21:00,
2013-05-20 02:26:00,66.6,66.0,30.09,South,189,0.0,0.0,98,0.00,,---,0.00,VWS V14.01,2013-05-20 06:26:00,
2013-05-20 02:31:00,66.6,66.0,30.09,South,189,0.0,0.0,98,0.00,,---,0.00,VWS V14.01,2013-05-20 06:31:00,
2013-05-20 02:36:00,66.6,66.0,30.09,South,189,0.0,0.0,98,0.00,,---,0.00,VWS V14.01,2013-05-20 06:36:00,
2013-05-20 02:41:00,66.6,66.0,30.09,South,189,0.0,0.0,98,0.00,,---,0.00,VWS V14.01,2013-05-20 06:41:00,
2013-05-20 02:45:00,66.6,66.0,30.09,South,189,0.0,0.0,98,0.00,,---,0.00,VWS V14.01,2013-05-20 06:45:00,
2013-05-20 02:50:00,66.6,66.0,30.09,South,189,0.0,0.0,98,0.00,,---,0.00,VWS V14.01,2013-05-20 06:50:00,
2013-05-20 02:55:00,66.6,66.0,30.09,South,189,0.0,0.0,98,0.00,,---,0.00,VWS V14.01,2013-05-20 06:55:00,
2013-05-20 03:00:00,66.6,66.0,30.09,South,189,0.0,0.0,98,0.00,,---,0.00,VWS V14.01,2013-05-20 07:00:00,
2013-05-20 03:05:00,66.6,66.0,30.09,South,189,0.0,0.0,98,0.00,,---,0.00,VWS V14.01,2013-05-20 07:05:00,
2013-05-20 03:10:00,66.6,66.0,30.06,South,189,0.0,0.0,98,0.00,,---,0.00,VWS V14.01,2013-05-20 07:10:00,
2013-05-20 03:15:00,66.6,66.0,30.06,South,189,0.0,0.0,98,0.00,,---,0.00,VWS V14.01,2013-05-20 07:15:00,
2013-05-20 03:20:00,66.6,66.0,30.06,South,189,0.0,0.0,98,0.00,,---,0.00,VWS V14.01,2013-05-20 07:20:00,
2013-05-20 03:25:00,66.6,66.0,30.06,South,189,0.0,0.0,98,0.00,,---,0.00,VWS V14.01,2013-05-20 07:25:00,
2013-05-20 03:30:00,66.6,66.0,30.06,South,189,0.0,0.0,98,0.00,,---,0.00,VWS V14.01,2013-05-20 07:30:00,
2013-05-20 03:35:00,66.6,66.0,30.06,South,189,0.0,0.0,98,0.00,,---,0.00,VWS V14.01,2013-05-20 07:35:00,
2013-05-20 03:40:00,66.6,66.0,30.06,South,189,0.0,0.0,98,0.00,,---,0.00,VWS V14.01,2013-05-20 07:40:00,
2013-05-20 03:45:00,66.6,66.0,30.06,South,189,0.0,0.0,98,0.00,,---,0.00,VWS V14.01,2013-05-20 07:45:00,
2013-05-20 03:50:00,66.4,65.8,30.06,South,189,0.0,0.0,98,0.00,,---,0.00,VWS V14.01,2013-05-20 07:50:00,
2013-05-20 03:55:00,66.6,66.0,30.06,South,189,0.0,0.0,98,0.00,,---,0.00,VWS V14.01,2013-05-20 07:55:00,
2013-05-20 04:00:00,66.6,66.0,30.06,South,189,0.0,0.0,98,0.00,,---,0.00,VWS V14.01,2013-05-20 08:00:00,
2013-05-20 04:05:00,66.6,66.0,30.06,South,189,0.0,0.0,98,0.00,,---,0.00,VWS V14.01,2013-05-20 08:05:00,
2013-05-20 04:10:00,66.6,66.0,30.06,South,189,0.0,0.0,98,0.00,,---,0.00,VWS V14.01,2013-05-20 08:10:00,
2013-05-20 04:15:00,66.6,66.0,30.06,South,189,0.0,0.0,98,0.00,,---,0.00,VWS V14.01,2013-05-20 08:15:00,
2013-05-20 04:20:00,66.6,66.0,30.06,South,189,0.0,0.0,98,0.00,,---,0.00,VWS V14.01,2013-05-20 08:20:00,
2013-05-20 04:25:00,66.6,66.0,30.06,South,189,0.0,0.0,98,0.00,,---,0.00,VWS V14.01,2013-05-20 08:25:00,
2013-05-20 04:30:00,66.6,66.0,30.06,South,189,0.0,0.0,98,0.00,,---,0.00,VWS V14.01,2013-05-20 08:30:00,
2013-05-20 04:35:00,66.6,66.0,30.06,South,189,0.0,0.0,98,0.00,,---,0.00,VWS V14.01,2013-05-20 08:35:00,
2013-05-20 04:40:00,66.6,66.0,30.06,South,189,0.0,0.0,98,0.00,,---,0.00,VWS V14.01,2013-05-20 08:40:00,
2013-05-20 04:45:00,66.6,66.0,30.06,South,189,0.0,0.0,98,0.00,,---,0.00,VWS V14.01,2013-05-20 08:45:00,
2013-05-20 04:50:00,66.6,66.0,30.06,South,189,0.0,0.0,98,0.00,,---,0.00,VWS V14.01,2013-05-20 08:50:00,
2013-05-20 04:55:00,66.6,66.0,30.06,South,189,0.0,0.0,98,0.00,,---,0.00,VWS V14.01,2013-05-20 08:55:00,
2013-05-20 05:00:00,66.6,66.0,30.06,South,189,0.0,0.0,98,0.00,,---,0.00,VWS V14.01,2013-05-20 09:00:00,
2013-05-20 05:05:00,66.6,66.0,30.06,South,189,0.0,0.0,98,0.00,,---,0.00,VWS V14.01,2013-05-20 09:05:00,
2013-05-20 05:10:00,66.6,66.0,30.06,South,189,0.0,0.0,98,0.00,,---,0.00,VWS V14.01,2013-05-20 09:10:00,
2013-05-20 05:15:00,66.6,66.0,30.06,South,189,0.0,0.0,98,0.00,,---,0.00,VWS V14.01,2013-05-20 09:15:00,
2013-05-20 05:20:00,66.6,66.0,30.06,South,189,0.0,0.0,98,0.00,,---,0.00,VWS V14.01,2013-05-20 09:20:00,
2013-05-20 05:25:00,66.6,66.0,30.06,South,189,0.0,0.0,98,0.00,,---,0.00,VWS V14.01,2013-05-20 09:25:00,
2013-05-20 05:30:00,66.6,66.0,30.06,South,189,0.0,0.0,98,0.00,,---,0.00,VWS V14.01,2013-05-20 09:30:00,
2013-05-20 05:35:00,66.6,66.0,30.06,South,189,0.0,0.0,98,0.00,,---,0.00,VWS V14.01,2013-05-20 09:35:00,
2013-05-20 05:40:00,66.6,66.0,30.06,South,189,0.0,0.0,98,0.00,,---,0.00,VWS V14.01,2013-05-20 09:40:00,
2013-05-20 05:45:00,66.6,66.0,30.06,South,189,0.0,0.0,98,0.00,,---,0.00,VWS V14.01,2013-05-20 09:45:00,
2013-05-20 05:50:00,66.6,66.0,30.06,South,189,0.0,0.0,98,0.00,,---,0.00,VWS V14.01,2013-05-20 09:50:00,
2013-05-20 05:55:00,66.6,66.0,30.06,South,189,0.0,0.0,98,0.00,,---,0.00,VWS V14.01,2013-05-20 09:55:00,
2013-05-20 06:00:00,66.6,66.0,30.06,South,189,0.0,0.0,98,0.00,,---,0.00,VWS V14.01,2013-05-20 10:00:00,
2013-05-20 06:05:00,66.6,66.0,30.06,West,263,0.0,0.0,98,0.00,,---,0.00,VWS V14.01,2013-05-20 10:05:00,
2013-05-20 06:10:00,66.6,66.0,30.06,West,263,0.0,0.0,98,0.00,,---,0.00,VWS V14.01,2013-05-20 10:10:00,
2013-05-20 06:15:00,66.6,66.0,30.06,West,263,0.0,0.0,98,0.00,,---,0.00,VWS V14.01,2013-05-20 10:15:00,
2013-05-20 06:20:00,66.6,66.0,30.06,West,263,0.0,0.0,98,0.00,,---,0.00,VWS V14.01,2013-05-20 10:20:00,
2013-05-20 06:25:00,66.6,66.0,30.06,West,263,0.0,0.0,98,0.00,,---,0.00,VWS V14.01,2013-05-20 10:25:00,
2013-05-20 06:30:00,66.6,66.0,30.06,West,263,0.0,0.0,98,0.00,,---,0.00,VWS V14.01,2013-05-20 10:30:00,
2013-05-20 06:35:00,66.6,66.0,30.06,West,263,0.0,0.0,98,0.00,,---,0.00,VWS V14.01,2013-05-20 10:35:00,
2013-05-20 06:40:00,66.6,66.0,30.06,West,263,0.0,0.0,98,0.00,,---,0.00,VWS V14.01,2013-05-20 10:40:00,
2013-05-20 06:45:00,66.6,66.0,30.06,West,263,0.0,0.0,98,0.00,,---,0.00,VWS V14.01,2013-05-20 10:45:00,
2013-05-20 06:50:00,66.6,66.0,30.06,West,263,0.0,0.0,98,0.00,,---,0.00,VWS V14.01,2013-05-20 10:50:00,
2013-05-20 06:55:00,66.7,66.2,30.09,West,263,0.0,0.0,98,0.00,,---,0.00,VWS V14.01,2013-05-20 10:55:00,
2013-05-20 07:00:00,66.6,66.0,30.09,West,263,0.0,0.0,98,0.00,,---,0.00,VWS V14.01,2013-05-20 11:00:00,
2013-05-20 07:05:00,66.7,66.2,30.09,West,263,0.0,0.0,98,0.00,,---,0.00,VWS V14.01,2013-05-20 11:05:00,
2013-05-20 07:10:00,66.7,66.2,30.09,West,263,0.0,0.0,98,0.00,,---,0.00,VWS V14.01,2013-05-20 11:10:00,
2013-05-20 07:15:00,66.7,66.2,30.09,West,263,0.0,0.0,98,0.00,,---,0.00,VWS V14.01,2013-05-20 11:15:00,
2013-05-20 07:20:00,66.7,66.2,30.09,West,263,0.0,0.0,98,0.00,,---,0.00,VWS V14.01,2013-05-20 11:20:00,
2013-05-20 07:25:00,66.7,66.2,30.09,West,263,0.0,0.0,98,0.00,,---,0.00,VWS V14.01,2013-05-20 11:25:00,
2013-05-20 07:30:00,66.7,66.2,30.09,West,263,0.0,0.0,98,0.00,,---,0.00,VWS V14.01,2013-05-20 11:30:00,
2013-05-20 07:35:00,66.9,66.3,30.09,West,263,0.0,0.0,98,0.00,,---,0.00,VWS V14.01,2013-05-20 11:35:00,
2013-05-20 07:40:00,66.9,66.3,30.09,West,263,0.0,0.0,98,0.00,,---,0.00,VWS V14.01,2013-05-20 11:40:00,
2013-05-20 07:45:00,66.9,66.3,30.09,West,263,0.0,0.0,98,0.00,,---,0.00,VWS V14.01,2013-05-20 11:45:00,
2013-05-20 07:50:00,67.1,66.5,30.09,West,263,0.0,0.0,98,0.00,,---,0.00,VWS V14.01,2013-05-20 11:50:00,
2013-05-20 07:55:00,67.1,66.5,30.09,West,263,0.0,0.0,98,0.00,,---,0.00,VWS V14.01,2013-05-20 11:55:00,
2013-05-20 08:00:00,67.3,66.7,30.09,West,263,0.0,0.0,98,0.00,,---,0.00,VWS V14.01,2013-05-20 12:00:00,
2013-05-20 08:05:00,67.3,66.7,30.09,West,263,0.0,0.0,98,0.00,,---,0.00,VWS V14.01,2013-05-20 12:05:00,
2013-05-20 08:10:00,67.3,66.7,30.09,West,263,0.0,0.0,98,0.00,,---,0.00,VWS V14.01,2013-05-20 12:10:00,
2013-05-20 08:15:00,67.3,66.7,30.09,West,263,0.0,0.0,98,0.00,,---,0.00,VWS V14.01,2013-05-20 12:15:00,
2013-05-20 08:20:00,67.5,66.9,30.09,West,263,0.0,0.0,98,0.00,,---,0.00,VWS V14.01,2013-05-20 12:20:00,
2013-05-20 08:25:00,67.5,66.9,30.12,West,263,0.0,0.0,98,0.00,,---,0.00,VWS V14.01,2013-05-20 12:25:00,
2013-05-20 08:30:00,67.5,66.9,30.12,West,263,0.0,0.0,98,0.00,,---,0.00,VWS V14.01,2013-05-20 12:30:00,
2013-05-20 08:35:00,67.5,66.9,30.12,West,263,0.0,0.0,98,0.00,,---,0.00,VWS V14.01,2013-05-20 12:35:00,
2013-05-20 08:40:00,67.6,67.1,30.12,West,263,0.0,0.0,98,0.00,,---,0.00,VWS V14.01,2013-05-20 12:40:00,
2013-05-20 08:45:00,67.6,67.1,30.12,West,263,0.0,0.0,98,0.00,,---,0.00,VWS V14.01,2013-05-20 12:45:00,
2013-05-20 08:50:00,67.6,67.1,30.12,West,263,0.0,0.0,98,0.00,,---,0.00,VWS V14.01,2013-05-20 12:50:00,
2013-05-20 08:55:00,67.8,67.2,30.12,West,263,0.0,0.0,98,0.00,,---,0.00,VWS V14.01,2013-05-20 12:55:00,
2013-05-20 09:00:00,67.8,67.2,30.12,West,263,0.0,0.0,98,0.00,,---,0.00,VWS V14.01,2013-05-20 13:00:00,
2013-05-20 09:05:00,68.0,67.4,30.12,West,263,0.0,0.0,98,0.00,,---,0.00,VWS V14.01,2013-05-20 13:05:00,
2013-05-20 09:10:00,68.2,67.6,30.12,West,263,0.0,0.0,98,0.00,,---,0.00,VWS V14.01,2013-05-20 13:10:00,
2013-05-20 09:15:00,68.2,67.6,30.12,West,263,0.0,0.0,98,0.00,,---,0.00,VWS V14.01,2013-05-20 13:15:00,
2013-05-20 09:20:00,68.4,67.8,30.12,West,263,0.0,0.0,98,0.00,,---,0.00,VWS V14.01,2013-05-20 13:20:00,
2013-05-20 09:25:00,68.5,68.0,30.12,West,263,0.0,0.0,98,0.00,,---,0.00,VWS V14.01,2013-05-20 13:25:00,
2013-05-20 09:30:00,68.5,68.0,30.12,West,263,0.0,0.0,98,0.00,,---,0.00,VWS V14.01,2013-05-20 13:30:00,
2013-05-20 09:35:00,68.5,68.0,30.12,West,263,0.0,0.0,98,0.00,,---,0.00,VWS V14.01,2013-05-20 13:35:00,
2013-05-20 09:40:00,68.7,68.1,30.12,West,263,0.0,0.0,98,0.00,,---,0.00,VWS V14.01,2013-05-20 13:40:00,
2013-05-20 09:45:00,68.7,68.1,30.12,West,263,0.0,0.0,98,0.00,,---,0.00,VWS V14.01,2013-05-20 13:45:00,
2013-05-20 09:50:00,68.7,68.1,30.12,West,263,0.0,0.0,98,0.00,,---,0.00,VWS V14.01,2013-05-20 13:50:00,
2013-05-20 09:55:00,68.9,68.3,30.12,West,263,0.0,0.0,98,0.00,,---,0.00,VWS V14.01,2013-05-20 13:55:00,
2013-05-20 10:00:00,68.9,68.3,30.12,West,263,0.0,0.0,98,0.00,,---,0.00,VWS V14.01,2013-05-20 14:00:00,
2013-05-20 10:05:00,69.1,68.5,30.12,West,263,0.0,0.0,98,0.00,,---,0.00,VWS V14.01,2013-05-20 14:05:00,
2013-05-20 10:10:00,69.1,68.5,30.12,West,263,0.0,0.0,98,0.00,,---,0.00,VWS V14.01,2013-05-20 14:10:00,
2013-05-20 10:15:00,69.1,68.5,30.12,West,263,0.0,0.0,98,0.00,,---,0.00,VWS V14.01,2013-05-20 14:15:00,
2013-05-20 10:20:00,69.3,68.7,30.12,NNW,332,0.0,0.0,98,0.00,,---,0.00,VWS V14.01,2013-05-20 14:20:00,
2013-05-20 10:25:00,69.4,68.8,30.12,NNW,332,0.0,0.0,98,0.00,,---,0.00,VWS V14.01,2013-05-20 14:25:00,
2013-05-20 10:30:00,69.4,68.8,30.12,NNW,332,0.0,0.0,98,0.00,,---,0.00,VWS V14.01,2013-05-20 14:30:00,
2013-05-20 10:35:00,69.6,69.0,30.12,NNW,332,0.0,0.0,98,0.00,,---,0.00,VWS V14.01,2013-05-20 14:35:00,
2013-05-20 10:40:00,69.6,69.0,30.12,West,267,0.0,0.0,98,0.00,,---,0.00,VWS V14.01,2013-05-20 14:40:00,
2013-05-20 10:45:00,69.8,69.2,30.12,West,267,0.0,0.0,98,0.00,,---,0.00,VWS V14.01,2013-05-20 14:45:00,
2013-05-20 10:50:00,70.0,69.4,30.12,West,267,0.0,0.0,98,0.00,,---,0.00,VWS V14.01,2013-05-20 14:50:00,
2013-05-20 10:55:00,70.0,69.4,30.12,West,267,0.0,0.0,98,0.00,,---,0.00,VWS V14.01,2013-05-20 14:55:00,
2013-05-20 11:00:00,70.0,69.4,30.12,West,267,0.0,0.0,98,0.00,,---,0.00,VWS V14.01,2013-05-20 15:00:00,
2013-05-20 11:05:00,70.2,69.6,30.12,West,267,0.0,0.0,98,0.00,,---,0.00,VWS V14.01,2013-05-20 15:05:00,
2013-05-20 11:10:00,70.2,69.6,30.12,West,267,0.0,0.0,98,0.00,,---,0.00,VWS V14.01,2013-05-20 15:10:00,
2013-05-20 11:15:00,70.3,69.8,30.12,West,267,0.0,0.0,98,0.00,,---,0.00,VWS V14.01,2013-05-20 15:15:00,
2013-05-20 11:20:00,70.5,69.9,30.12,West,267,0.0,0.0,98,0.00,,---,0.00,VWS V14.01,2013-05-20 15:20:00,
2013-05-20 11:25:00,70.5,69.9,30.12,West,267,0.0,0.0,98,0.00,,---,0.00,VWS V14.01,2013-05-20 15:25:00,
2013-05-20 11:30:00,70.7,70.1,30.12,West,267,0.0,0.0,98,0.00,,---,0.00,VWS V14.01,2013-05-20 15:30:00,
2013-05-20 11:35:00,70.9,70.3,30.12,West,267,0.0,0.0,98,0.00,,---,0.00,VWS V14.01,2013-05-20 15:35:00,
2013-05-20 11:40:00,70.9,70.3,30.12,WNW,298,0.0,0.0,98,0.00,,---,0.00,VWS V14.01,2013-05-20 15:40:00,
2013-05-20 11:45:00,71.1,70.5,30.12,WNW,298,0.0,0.0,98,0.00,,---,0.00,VWS V14.01,2013-05-20 15:45:00,
2013-05-20 11:50:00,71.2,70.7,30.12,WNW,298,0.0,0.0,98,0.00,,---,0.00,VWS V14.01,2013-05-20 15:50:00,
2013-05-20 11:55:00,71.4,70.8,30.09,NNW,334,0.0,0.0,98,0.00,,---,0.00,VWS V14.01,2013-05-20 15:55:00,
2013-05-20 12:00:00,71.4,70.8,30.09,North,357,0.0,0.0,98,0.00,,---,0.00,VWS V14.01,2013-05-20 16:00:00,
2013-05-20 12:05:00,71.4,70.8,30.09,NNW,341,0.0,0.0,98,0.04,,---,0.04,VWS V14.01,2013-05-20 16:05:00,
2013-05-20 12:10:00,71.2,70.7,30.09,NNW,331,0.0,0.0,98,0.04,,---,0.04,VWS V14.01,2013-05-20 16:10:00,
2013-05-20 12:15:00,71.1,70.5,30.09,NNW,331,0.0,0.0,98,0.04,,---,0.04,VWS V14.01,2013-05-20 16:15:00,
2013-05-20 12:20:00,71.2,70.7,30.09,NNW,331,0.0,0.0,98,0.04,,---,0.04,VWS V14.01,2013-05-20 16:20:00,
2013-05-20 12:25:00,71.4,70.8,30.09,ESE,117,0.0,0.0,98,0.04,,---,0.04,VWS V14.01,2013-05-20 16:25:00,
2013-05-20 12:30:00,72.0,71.4,30.09,NNW,329,0.0,0.0,98,0.04,,---,0.04,VWS V14.01,2013-05-20 16:30:00,
2013-05-20 12:35:00,72.3,71.7,30.09,NW,304,0.0,0.0,98,0.04,,---,0.04,VWS V14.01,2013-05-20 16:35:00,
2013-05-20 12:40:00,72.5,71.6,30.09,SW,236,0.0,0.0,97,0.04,,---,0.04,VWS V14.01,2013-05-20 16:40:00,
2013-05-20 12:45:00,72.7,71.5,30.09,North,357,0.0,0.0,96,0.04,,---,0.04,VWS V14.01,2013-05-20 16:45:00,
2013-05-20 12:50:00,72.9,71.3,30.09,ESE,114,0.0,0.0,95,0.04,,---,0.04,VWS V14.01,2013-05-20 16:50:00,
2013-05-20 12:55:00,73.0,71.2,30.09,NNW,343,0.0,0.0,94,0.04,,---,0.04,VWS V14.01,2013-05-20 16:55:00,
2013-05-20 13:00:00,73.4,71.3,30.09,South,189,2.7,3.1,93,0.04,,---,0.04,VWS V14.01,2013-05-20 17:00:00,
2013-05-20 13:05:00,73.8,71.0,30.09,SSW,193,0.0,0.0,91,0.00,,---,0.04,VWS V14.01,2013-05-20 17:05:00,
2013-05-20 13:10:00,73.6,70.1,30.09,NW,319,3.1,3.1,89,0.00,,---,0.04,VWS V14.01,2013-05-20 17:10:00,
2013-05-20 13:15:00,73.6,69.8,30.09,NW,311,0.0,0.0,88,0.00,,---,0.04,VWS V14.01,2013-05-20 17:15:00,
2013-05-20 13:20:00,73.6,69.5,30.09,NNW,333,0.0,3.6,87,0.00,,---,0.04,VWS V14.01,2013-05-20 17:20:00,
2013-05-20 13:25:00,73.8,69.3,30.09,West,260,0.0,0.0,86,0.00,,---,0.04,VWS V14.01,2013-05-20 17:25:00,
2013-05-20 13:30:00,73.8,69.0,30.09,WSW,243,0.0,0.0,85,0.00,,---,0.04,VWS V14.01,2013-05-20 17:30:00,
2013-05-20 13:35:00,73.8,68.3,30.09,West,277,2.7,2.7,83,0.00,,---,0.04,VWS V14.01,2013-05-20 17:35:00,
2013-05-20 13:40:00,73.9,67.4,30.06,WSW,246,3.6,4.9,80,0.00,,---,0.04,VWS V14.01,2013-05-20 17:40:00,
2013-05-20 13:45:00,74.1,67.6,30.06,WNW,283,3.1,3.1,80,0.00,,---,0.04,VWS V14.01,2013-05-20 17:45:00,
2013-05-20 13:50:00,74.5,67.6,30.06,South,171,0.0,0.0,79,0.00,,---,0.04,VWS V14.01,2013-05-20 17:50:00,
2013-05-20 13:55:00,74.8,67.9,30.06,East,91,0.0,0.0,79,0.00,,---,0.04,VWS V14.01,2013-05-20 17:55:00,
2013-05-20 14:00:00,74.8,67.5,30.06,SW,230,0.0,0.0,78,0.00,,---,0.04,VWS V14.01,2013-05-20 18:00:00,
2013-05-20 14:05:00,74.7,67.3,30.06,NW,324,0.0,2.7,78,0.00,,---,0.04,VWS V14.01,2013-05-20 18:05:00,
2013-05-20 14:10:00,74.5,66.8,30.06,SW,215,3.1,3.6,77,0.00,,---,0.04,VWS V14.01,2013-05-20 18:10:00,
2013-05-20 14:15:00,74.3,66.6,30.06,WSW,253,2.2,2.2,77,0.00,,---,0.04,VWS V14.01,2013-05-20 18:15:00,
2013-05-20 14:20:00,74.1,66.5,30.06,WNW,302,0.0,0.0,77,0.00,,---,0.04,VWS V14.01,2013-05-20 18:20:00,
2013-05-20 14:25:00,73.9,66.3,30.06,NE,45,0.0,3.1,77,0.00,,---,0.04,VWS V14.01,2013-05-20 18:25:00,
2013-05-20 14:30:00,73.9,66.7,30.06,NW,324,0.0,0.0,78,0.00,,---,0.04,VWS V14.01,2013-05-20 18:30:00,
2013-05-20 14:35:00,74.1,66.8,30.06,North,353,0.0,0.0,78,0.00,,---,0.04,VWS V14.01,2013-05-20 18:35:00,
2013-05-20 14:40:00,74.7,67.0,30.06,WNW,283,0.0,2.7,77,0.00,,---,0.04,VWS V14.01,2013-05-20 18:40:00,
2013-05-20 14:45:00,75.0,66.9,30.06,SW,236,0.0,3.1,76,0.00,,---,0.04,VWS V14.01,2013-05-20 18:45:00,
2013-05-20 14:50:00,75.2,66.3,30.06,WNW,295,2.7,2.7,74,0.00,,---,0.04,VWS V14.01,2013-05-20 18:50:00,
2013-05-20 14:55:00,75.4,67.3,30.06,North,357,0.0,0.0,76,0.00,,---,0.04,VWS V14.01,2013-05-20 18:55:00,
2013-05-20 15:00:00,75.4,66.9,30.06,NW,311,0.0,0.0,75,0.00,,---,0.04,VWS V14.01,2013-05-20 19:00:00,
2013-05-20 15:05:00,75.6,66.7,30.06,NNW,330,2.7,4.0,74,0.00,,---,0.04,VWS V14.01,2013-05-20 19:05:00,
2013-05-20 15:10:00,75.7,66.5,30.06,WNW,285,2.7,2.7,73,0.00,,---,0.04,VWS V14.01,2013-05-20 19:10:00,
2013-05-20 15:15:00,76.1,66.8,30.06,NW,318,3.6,3.6,73,0.00,,---,0.04,VWS V14.01,2013-05-20 19:15:00,
2013-05-20 15:20:00,76.1,66.4,30.06,SSW,210,0.0,3.1,72,0.00,,---,0.04,VWS V14.01,2013-05-20 19:20:00,
2013-05-20 15:25:00,75.9,66.2,30.06,WNW,287,0.0,0.0,72,0.00,,---,0.04,VWS V14.01,2013-05-20 19:25:00,
2013-05-20 15:30:00,75.9,66.2,30.06,NNW,329,2.7,2.7,72,0.00,,---,0.04,VWS V14.01,2013-05-20 19:30:00,
2013-05-20 15:35:00,75.9,66.2,30.06,SW,224,0.0,0.0,72,0.00,,---,0.04,VWS V14.01,2013-05-20 19:35:00,
2013-05-20 15:40:00,75.9,66.2,30.03,SW,224,0.0,0.0,72,0.00,,---,0.04,VWS V14.01,2013-05-20 19:40:00,
2013-05-20 15:45:00,76.1,66.4,30.03,WSW,254,2.7,3.1,72,0.00,,---,0.04,VWS V14.01,2013-05-20 19:45:00,
2013-05-20 15:50:00,75.9,65.8,30.03,WSW,243,2.2,2.2,71,0.00,,---,0.04,VWS V14.01,2013-05-20 19:50:00,
2013-05-20 15:55:00,75.9,65.8,30.03,SSW,210,0.0,0.0,71,0.00,,---,0.04,VWS V14.01,2013-05-20 19:55:00,
2013-05-20 16:00:00,75.9,65.8,30.03,SSW,195,0.0,0.0,71,0.00,,---,0.04,VWS V14.01,2013-05-20 20:00:00,
2013-05-20 16:05:00,76.1,66.4,30.03,NW,323,0.0,0.0,72,0.00,,---,0.04,VWS V14.01,2013-05-20 20:05:00,
2013-05-20 16:10:00,76.3,66.6,30.03,NW,323,0.0,0.0,72,0.00,,---,0.04,VWS V14.01,2013-05-20 20:10:00,
2013-05-20 16:15:00,76.5,66.8,30.03,NW,312,3.6,3.6,72,0.00,,---,0.04,VWS V14.01,2013-05-20 20:15:00,
2013-05-20 16:20:00,76.6,66.5,30.03,NW,312,0.0,0.0,71,0.00,,---,0.04,VWS V14.01,2013-05-20 20:20:00,
2013-05-20 16:25:00,76.6,66.5,30.03,NW,312,0.0,0.0,71,0.00,,---,0.04,VWS V14.01,2013-05-20 20:25:00,
2013-05-20 16:30:00,76.6,68.5,30.03,South,189,0.0,0.0,76,0.00,,---,0.04,VWS V14.01,2013-05-20 20:30:00,
2013-05-20 16:35:00,76.6,68.1,30.03,NW,313,0.0,0.0,75,0.00,,---,0.04,VWS V14.01,2013-05-20 20:35:00,
2013-05-20 16:40:00,76.5,67.6,30.03,NW,313,0.0,0.0,74,0.00,,---,0.04,VWS V14.01,2013-05-20 20:40:00,
2013-05-20 16:45:00,76.5,66.8,30.03,West,259,0.0,0.0,72,0.00,,---,0.04,VWS V14.01,2013-05-20 20:45:00,
2013-05-20 16:50:00,76.5,66.8,30.03,NW,326,3.1,3.1,72,0.00,,---,0.04,VWS V14.01,2013-05-20 20:50:00,
2013-05-20 16:55:00,76.5,66.8,30.03,North,1,0.0,0.0,72,0.00,,---,0.04,VWS V14.01,2013-05-20 20:55:00,
2013-05-20 17:00:00,76.3,67.4,30.03,West,265,0.0,0.0,74,0.00,,---,0.04,VWS V14.01,2013-05-20 21:00:00,
2013-05-20 17:05:00,76.1,67.2,30.03,West,265,0.0,0.0,74,0.00,,---,0.04,VWS V14.01,2013-05-20 21:05:00,
2013-05-20 17:10:00,76.1,67.2,30.03,West,265,0.0,0.0,74,0.00,,---,0.04,VWS V14.01,2013-05-20 21:10:00,
2013-05-20 17:15:00,76.1,67.2,30.00,NE,44,0.0,0.0,74,0.00,,---,0.04,VWS V14.01,2013-05-20 21:15:00,
2013-05-20 17:20:00,75.4,66.9,30.00,NE,37,0.0,2.7,75,0.00,,---,0.04,VWS V14.01,2013-05-20 21:20:00,
2013-05-20 17:25:00,74.7,66.2,30.03,East,82,3.1,3.6,75,0.00,,---,0.04,VWS V14.01,2013-05-20 21:25:00,
2013-05-20 17:30:00,73.9,65.5,30.03,ESE,116,3.1,5.4,75,0.00,,---,0.04,VWS V14.01,2013-05-20 21:30:00,
2013-05-20 17:35:00,73.0,64.3,30.03,ESE,108,0.0,2.7,74,0.00,,---,0.04,VWS V14.01,2013-05-20 21:35:00,
2013-05-20 17:40:00,72.3,64.0,30.03,ENE,74,2.2,3.1,75,0.00,,---,0.04,VWS V14.01,2013-05-20 21:40:00,
2013-05-20 17:45:00,71.8,63.8,30.03,ENE,66,3.1,3.1,76,0.00,,---,0.04,VWS V14.01,2013-05-20 21:45:00,
2013-05-20 17:50:00,71.4,64.2,30.03,ENE,58,0.0,2.2,78,0.00,,---,0.04,VWS V14.01,2013-05-20 21:50:00,
2013-05-20 17:55:00,71.2,64.0,30.03,East,83,0.0,0.0,78,0.00,,---,0.04,VWS V14.01,2013-05-20 21:55:00,
2013-05-20 18:00:00,70.5,64.1,30.06,East,82,0.0,0.0,80,0.00,,---,0.04,VWS V14.01,2013-05-20 22:00:00,
2013-05-20 18:05:00,69.8,63.7,30.06,East,82,0.0,0.0,81,0.00,,---,0.04,VWS V14.01,2013-05-20 22:05:00,
2013-05-20 18:09:00,69.1,64.1,30.03,East,82,0.0,0.0,84,0.00,,---,0.04,VWS V14.01,2013-05-20 22:09:00,
2013-05-20 18:14:00,68.7,64.4,30.03,East,82,0.0,0.0,86,0.00,,---,0.04,VWS V14.01,2013-05-20 22:14:00,
2013-05-20 18:19:00,68.7,65.3,30.03,East,82,0.0,0.0,89,0.00,,---,0.04,VWS V14.01,2013-05-20 22:19:00,
2013-05-20 18:24:00,68.9,65.8,30.03,East,82,0.0,0.0,90,0.00,,---,0.04,VWS V14.01,2013-05-20 22:24:00,
2013-05-20 18:29:00,69.1,66.3,30.03,East,82,0.0,0.0,91,0.04,,---,0.08,VWS V14.01,2013-05-20 22:29:00,
2013-05-20 18:34:00,69.1,66.7,30.03,East,82,0.0,0.0,92,0.04,,---,0.08,VWS V14.01,2013-05-20 22:34:00,
2013-05-20 18:39:00,69.4,67.3,30.03,East,82,0.0,0.0,93,0.04,,---,0.08,VWS V14.01,2013-05-20 22:39:00,
2013-05-20 18:44:00,69.4,67.6,30.03,East,82,0.0,0.0,94,0.04,,---,0.08,VWS V14.01,2013-05-20 22:44:00,
2013-05-20 18:49:00,69.4,67.9,30.03,East,82,0.0,0.0,95,0.04,,---,0.08,VWS V14.01,2013-05-20 22:49:00,
2013-05-20 18:54:00,69.4,67.9,30.03,East,82,0.0,0.0,95,0.04,,---,0.08,VWS V14.01,2013-05-20 22:54:00,
2013-05-20 18:59:00,69.4,67.9,30.03,East,82,0.0,0.0,95,0.04,,---,0.08,VWS V14.01,2013-05-20 22:59:00,
2013-05-20 19:04:00,69.4,68.2,30.03,East,82,0.0,0.0,96,0.04,,---,0.08,VWS V14.01,2013-05-20 23:04:00,
2013-05-20 19:09:00,69.4,68.2,30.03,East,82,0.0,0.0,96,0.04,,---,0.08,VWS V14.01,2013-05-20 23:09:00,
2013-05-20 19:14:00,69.4,68.2,30.03,East,82,0.0,0.0,96,0.04,,---,0.08,VWS V14.01,2013-05-20 23:14:00,
2013-05-20 19:19:00,69.3,68.4,30.03,East,82,0.0,0.0,97,0.04,,---,0.08,VWS V14.01,2013-05-20 23:19:00,
2013-05-20 19:24:00,69.3,68.4,30.03,East,82,0.0,0.0,97,0.04,,---,0.08,VWS V14.01,2013-05-20 23:24:00,
2013-05-20 19:29:00,69.3,68.4,30.06,East,82,0.0,0.0,97,0.04,,---,0.12,VWS V14.01,2013-05-20 23:29:00,
2013-05-20 19:34:00,69.1,68.2,30.06,East,82,0.0,0.0,97,0.04,,---,0.12,VWS V14.01,2013-05-20 23:34:00,
2013-05-20 19:39:00,69.1,68.2,30.06,East,82,0.0,0.0,97,0.04,,---,0.12,VWS V14.01,2013-05-20 23:39:00,
2013-05-20 19:44:00,69.1,68.2,30.06,East,82,0.0,0.0,97,0.04,,---,0.12,VWS V14.01,2013-05-20 23:44:00,
2013-05-20 19:49:00,69.1,68.5,30.06,East,82,0.0,0.0,98,0.04,,---,0.12,VWS V14.01,2013-05-20 23:49:00,
2013-05-20 19:54:00,69.1,68.5,30.06,East,82,0.0,0.0,98,0.04,,---,0.12,VWS V14.01,2013-05-20 23:54:00,
2013-05-20 19:59:00,68.9,68.3,30.06,East,82,0.0,0.0,98,0.04,,---,0.12,VWS V14.01,2013-05-20 23:59:00,
2013-05-20 20:04:00,68.9,68.3,30.06,East,82,0.0,0.0,98,0.04,,---,0.12,VWS V14.01,2013-05-21 00:04:00,
2013-05-20 20:09:00,68.9,68.3,30.06,East,82,0.0,0.0,98,0.04,,---,0.12,VWS V14.01,2013-05-21 00:09:00,
2013-05-20 20:14:00,68.7,68.1,30.06,East,82,0.0,0.0,98,0.04,,---,0.12,VWS V14.01,2013-05-21 00:14:00,
2013-05-20 20:19:00,68.5,68.0,30.06,East,82,0.0,0.0,98,0.04,,---,0.12,VWS V14.01,2013-05-21 00:19:00,
2013-05-20 20:24:00,68.4,67.8,30.06,East,82,0.0,0.0,98,0.04,,---,0.12,VWS V14.01,2013-05-21 00:24:00,
2013-05-20 20:29:00,68.2,67.6,30.06,East,82,0.0,0.0,98,0.00,,---,0.12,VWS V14.01,2013-05-21 00:29:00,
2013-05-20 20:34:00,68.0,67.4,30.06,East,82,0.0,0.0,98,0.00,,---,0.12,VWS V14.01,2013-05-21 00:34:00,
2013-05-20 20:39:00,68.0,67.4,30.06,East,82,0.0,0.0,98,0.00,,---,0.12,VWS V14.01,2013-05-21 00:39:00,
2013-05-20 20:44:00,67.8,67.2,30.06,East,82,0.0,0.0,98,0.00,,---,0.12,VWS V14.01,2013-05-21 00:44:00,
2013-05-20 20:49:00,67.6,67.1,30.06,East,82,0.0,0.0,98,0.00,,---,0.12,VWS V14.01,2013-05-21 00:49:00,
2013-05-20 20:54:00,67.6,67.1,30.06,East,82,0.0,0.0,98,0.00,,---,0.12,VWS V14.01,2013-05-21 00:54:00,
2013-05-20 20:59:00,67.5,66.9,30.06,East,82,0.0,0.0,98,0.00,,---,0.12,VWS V14.01,2013-05-21 00:59:00,
2013-05-20 21:04:00,67.5,66.9,30.06,East,82,0.0,0.0,98,0.00,,---,0.12,VWS V14.01,2013-05-21 01:04:00,
2013-05-20 21:09:00,67.3,66.7,30.06,East,82,0.0,0.0,98,0.00,,---,0.12,VWS V14.01,2013-05-21 01:09:00,
2013-05-20 21:14:00,67.3,66.7,30.06,East,82,0.0,0.0,98,0.00,,---,0.12,VWS V14.01,2013-05-21 01:14:00,
2013-05-20 21:19:00,67.3,66.7,30.06,East,82,0.0,0.0,98,0.00,,---,0.12,VWS V14.01,2013-05-21 01:19:00,
2013-05-20 21:24:00,67.1,66.5,30.06,East,82,0.0,0.0,98,0.00,,---,0.12,VWS V14.01,2013-05-21 01:24:00,
2013-05-20 21:29:00,67.1,66.5,30.06,East,82,0.0,0.0,98,0.00,,---,0.12,VWS V14.01,2013-05-21 01:29:00,
2013-05-20 21:34:00,67.1,66.5,30.06,East,82,0.0,0.0,98,0.00,,---,0.12,VWS V14.01,2013-05-21 01:34:00,
2013-05-20 21:39:00,66.9,66.3,30.06,East,82,0.0,0.0,98,0.00,,---,0.12,VWS V14.01,2013-05-21 01:39:00,
2013-05-20 21:44:00,66.9,66.3,30.06,East,82,0.0,0.0,98,0.00,,---,0.12,VWS V14.01,2013-05-21 01:44:00,
2013-05-20 21:49:00,66.9,66.3,30.06,East,82,0.0,0.0,98,0.00,,---,0.12,VWS V14.01,2013-05-21 01:49:00,
2013-05-20 21:54:00,66.9,66.3,30.06,East,82,0.0,0.0,98,0.00,,---,0.12,VWS V14.01,2013-05-21 01:54:00,
2013-05-20 21:59:00,66.7,66.2,30.06,East,82,0.0,0.0,98,0.00,,---,0.12,VWS V14.01,2013-05-21 01:59:00,
2013-05-20 22:04:00,66.7,66.2,30.06,East,82,0.0,0.0,98,0.00,,---,0.12,VWS V14.01,2013-05-21 02:04:00,
2013-05-20 22:09:00,66.7,66.2,30.06,East,82,0.0,0.0,98,0.04,,---,0.16,VWS V14.01,2013-05-21 02:09:00,
2013-05-20 22:14:00,66.6,66.0,30.06,East,82,0.0,0.0,98,0.04,,---,0.16,VWS V14.01,2013-05-21 02:14:00,
2013-05-20 22:19:00,66.6,66.0,30.06,East,82,0.0,0.0,98,0.04,,---,0.16,VWS V14.01,2013-05-21 02:19:00,
2013-05-20 22:24:00,66.4,65.8,30.06,East,82,0.0,0.0,98,0.04,,---,0.16,VWS V14.01,2013-05-21 02:24:00,
2013-05-20 22:29:00,66.4,65.8,30.06,East,82,0.0,0.0,98,0.04,,---,0.16,VWS V14.01,2013-05-21 02:29:00,
2013-05-20 22:34:00,66.4,65.8,30.06,East,82,0.0,0.0,98,0.04,,---,0.16,VWS V14.01,2013-05-21 02:34:00,
2013-05-20 22:39:00,66.4,65.8,30.06,East,82,0.0,0.0,98,0.04,,---,0.16,VWS V14.01,2013-05-21 02:39:00,
2013-05-20 22:44:00,66.2,65.6,30.03,East,82,0.0,0.0,98,0.04,,---,0.16,VWS V14.01,2013-05-21 02:44:00,
2013-05-20 22:49:00,66.2,65.6,30.03,East,82,0.0,0.0,98,0.04,,---,0.16,VWS V14.01,2013-05-21 02:49:00,
2013-05-20 22:54:00,66.2,65.6,30.03,East,82,0.0,0.0,98,0.04,,---,0.16,VWS V14.01,2013-05-21 02:54:00,
2013-05-20 22:59:00,66.2,65.6,30.03,East,82,0.0,0.0,98,0.04,,---,0.16,VWS V14.01,2013-05-21 02:59:00,
2013-05-20 23:04:00,66.2,65.6,30.03,East,82,0.0,0.0,98,0.04,,---,0.16,VWS V14.01,2013-05-21 03:04:00,
2013-05-20 23:09:00,66.0,65.4,30.03,East,82,0.0,0.0,98,0.00,,---,0.16,VWS V14.01,2013-05-21 03:09:00,
2013-05-20 23:14:00,66.0,65.4,30.03,East,82,0.0,0.0,98,0.00,,---,0.16,VWS V14.01,2013-05-21 03:14:00,
2013-05-20 23:19:00,66.0,65.4,30.03,East,82,0.0,0.0,98,0.00,,---,0.16,VWS V14.01,2013-05-21 03:19:00,
2013-05-20 23:24:00,66.0,65.4,30.03,East,82,0.0,0.0,98,0.00,,---,0.16,VWS V14.01,2013-05-21 03:24:00,
2013-05-20 23:29:00,65.8,65.3,30.03,East,82,0.0,0.0,98,0.00,,---,0.16,VWS V14.01,2013-05-21 03:29:00,
2013-05-20 23:34:00,65.8,65.3,30.03,East,82,0.0,0.0,98,0.00,,---,0.16,VWS V14.01,2013-05-21 03:34:00,
2013-05-20 23:39:00,65.8,65.3,30.03,East,82,0.0,0.0,98,0.00,,---,0.16,VWS V14.01,2013-05-21 03:39:00,
2013-05-20 23:44:00,65.7,65.1,30.03,East,82,0.0,0.0,98,0.00,,---,0.16,VWS V14.01,2013-05-21 03:44:00,
2013-05-20 23:49:00,65.7,65.1,30.03,East,82,0.0,0.0,98,0.00,,---,0.16,VWS V14.01,2013-05-21 03:49:00,
2013-05-20 23:54:00,65.5,64.9,30.03,East,82,0.0,0.0,98,0.00,,---,0.16,VWS V14.01,2013-05-21 03:54:00,
2013-05-20 23:59:00,65.3,64.7,30.03,East,82,0.0,0.0,98,0.00,,---,0.16,VWS V14.01,2013-05-21 03:59:00,